period_start,C,m1,H,J0,J1,J2,J3,J4,J5,JA,JB,JC,JD,JJ,JK,JN,#
2016-04-08 00:01:40,0.07,2.44,0.00,13.67,18.26,22.17,15.28,48.86,1026.40,2069.99,2586.65,2595.56,2926.64,599.90,621.26,23.90,0000 0000 0000 0000 000000
2016-04-08 00:06:42,0.07,2.44,0.00,13.75,18.30,22.20,15.23,48.68,1026.42,2069.98,2585.43,2594.71,2925.60,599.91,621.15,23.95,0000 0000 0000 0000 000000
2016-04-08 00:11:43,0.06,2.45,0.00,13.80,18.33,22.29,15.27,48.84,1026.40,2069.91,2584.15,2593.84,2924.58,600.01,620.91,24.00,0000 0000 0000 0000 000000
2016-04-08 00:16:44,0.03,2.45,0.00,13.79,18.36,22.29,15.24,48.63,1026.39,2069.43,2582.80,2592.94,2923.52,600.25,621.34,24.05,0000 0000 0000 0000 000000
2016-04-08 00:21:45,0.05,2.45,0.00,13.81,18.39,22.31,15.26,48.93,1026.39,2069.14,2581.59,2592.08,2922.51,599.97,620.98,24.10,0000 0000 0000 0000 000000
2016-04-08 00:26:47,0.06,2.45,0.00,13.90,18.42,22.35,15.22,48.80,1026.40,2069.05,2580.46,2591.27,2921.61,599.94,620.79,24.15,0000 0000 0000 0000 000000
2016-04-08 00:31:48,0.07,2.46,0.00,13.94,18.44,22.41,15.22,48.70,1026.40,2069.02,2579.37,2590.55,2920.58,599.51,620.27,24.20,0000 0000 0000 0000 000000
2016-04-08 00:36:49,0.06,2.46,0.00,13.92,18.47,22.42,15.19,48.74,1026.51,2069.00,2578.19,2589.75,2919.61,599.95,620.81,24.25,0000 0000 0000 0000 000000
2016-04-08 00:41:50,0.06,2.47,0.00,13.95,18.49,22.44,15.25,48.92,1026.49,2069.00,2577.05,2588.97,2918.69,600.18,620.98,24.30,0000 0000 0000 0000 000000
2016-04-08 00:46:52,0.07,2.47,0.00,14.04,18.52,22.53,15.29,48.92,1026.44,2069.00,2575.98,2588.13,2917.77,600.26,620.96,24.35,0000 0000 0000 0000 000000
2016-04-08 00:51:53,0.07,2.47,0.00,14.07,18.54,22.49,15.26,48.92,1026.57,2068.99,2574.88,2587.44,2916.84,600.07,620.70,24.40,0000 0000 0000 0000 000000
2016-04-08 00:56:54,0.07,2.48,0.00,14.06,18.57,22.53,15.24,48.90,1026.72,2068.95,2573.71,2586.70,2915.84,600.28,620.98,24.45,0000 0000 0000 0000 000000
2016-04-08 01:01:55,0.04,2.48,0.00,14.08,18.59,22.60,15.26,48.89,1026.76,2068.92,2572.63,2585.95,2914.93,599.81,620.43,24.50,0000 0000 0000 0000 000000
2016-04-08 01:06:57,0.04,2.48,0.00,14.17,18.61,22.60,15.24,48.82,1026.81,2068.61,2571.48,2585.09,2914.00,600.08,620.63,24.55,0000 0000 0000 0000 000000
2016-04-08 01:11:58,0.04,2.48,0.00,14.17,18.64,22.62,15.23,48.87,1026.77,2068.16,2570.22,2584.29,2913.00,599.81,620.28,24.60,0000 0000 0000 0000 000000
2016-04-08 01:17:00,0.07,2.49,0.00,14.17,18.68,22.72,15.22,48.92,1026.66,2068.04,2568.96,2583.47,2912.04,600.10,620.53,24.65,0000 0000 0000 0000 000000
2016-04-08 01:22:01,0.08,2.49,0.00,14.24,18.71,22.73,15.28,48.83,1026.64,2068.02,2567.77,2582.67,2911.03,600.43,620.64,24.71,0000 0000 0000 0000 000000
2016-04-08 01:27:02,0.07,2.49,0.00,14.31,18.74,22.81,15.15,48.84,1026.64,2068.00,2566.57,2581.82,2909.93,599.75,619.82,24.76,0000 0000 0000 0000 000000
2016-04-08 01:32:03,0.07,2.50,0.00,14.34,18.78,22.81,15.24,48.98,1026.77,2068.00,2565.42,2580.97,2908.91,599.84,619.89,24.81,0000 0000 0000 0000 000000
2016-04-08 01:37:05,0.07,2.50,0.00,14.34,18.81,22.87,15.27,48.92,1026.81,2067.99,2564.15,2580.07,2907.88,600.00,620.18,24.86,0000 0000 0000 0000 000000
2016-04-08 01:42:06,0.09,2.51,0.00,14.40,18.85,22.90,15.24,48.92,1026.80,2067.98,2562.83,2579.14,2906.79,599.95,619.97,24.91,0000 0000 0000 0000 000000
2016-04-08 01:47:07,0.08,2.51,0.00,14.47,18.88,22.88,15.26,48.84,1026.85,2067.91,2561.49,2578.23,2905.68,600.51,620.50,24.96,0000 0000 0000 0000 000000
2016-04-08 01:52:08,0.05,2.51,0.00,14.48,18.92,22.99,15.26,48.70,1026.87,2067.66,2560.03,2577.27,2904.69,600.30,620.25,25.01,0000 0000 0000 0000 000000
2016-04-08 01:57:09,0.02,2.51,0.00,14.49,18.97,22.97,15.21,48.88,1026.87,2067.13,2559.08,2576.46,2903.63,599.86,619.82,25.06,0000 0000 0000 0000 000000
2016-04-08 02:02:11,0.07,2.52,0.00,14.52,19.01,23.00,15.15,48.67,1026.87,2067.02,2558.20,2575.65,2902.66,600.16,619.97,25.11,0000 0000 0000 0000 000000
2016-04-08 02:07:12,0.05,2.52,0.00,14.61,19.06,23.03,15.17,48.71,1026.87,2067.00,2557.08,2574.95,2901.72,599.69,619.31,25.16,0000 0000 0000 0000 000000
2016-04-08 02:12:13,0.08,2.53,0.00,14.64,19.11,23.10,15.19,48.89,1026.87,2067.00,2555.98,2574.08,2900.70,600.22,619.81,25.21,0000 0000 0000 0000 000000
2016-04-08 02:17:15,0.07,2.53,0.00,14.64,19.16,23.11,15.21,49.11,1026.87,2066.98,2554.93,2573.22,2899.71,600.04,619.56,25.26,0000 0000 0000 0000 000000
2016-04-08 02:22:16,0.05,2.53,0.00,14.68,19.22,23.12,15.15,49.26,1026.87,2066.75,2553.74,2572.36,2898.63,599.74,619.13,25.31,0000 0000 0000 0000 000000
2016-04-08 02:27:17,0.03,2.53,0.00,14.75,19.27,23.14,15.17,49.01,1026.87,2066.14,2552.50,2571.48,2897.55,600.02,619.42,25.36,0000 0000 0000 0000 000000
2016-04-08 02:32:18,0.07,2.54,0.00,14.84,19.32,23.22,15.20,49.41,1026.88,2066.02,2551.25,2570.56,2896.47,600.05,619.16,25.41,0000 0000 0000 0000 000000
2016-04-08 02:37:20,0.06,2.54,0.00,14.85,19.37,23.25,15.13,49.19,1026.87,2066.01,2550.00,2569.76,2895.50,599.85,618.82,25.46,0000 0000 0000 0000 000000
2016-04-08 02:42:21,0.06,2.54,0.00,14.88,19.41,23.26,15.18,49.07,1026.89,2066.00,2548.96,2568.95,2894.45,600.29,619.24,25.51,0000 0000 0000 0000 000000
2016-04-08 02:47:22,0.06,2.55,0.00,14.91,19.46,23.32,15.26,49.09,1026.92,2065.89,2547.87,2568.07,2893.40,600.39,619.35,25.56,0000 0000 0000 0000 000000
2016-04-08 02:52:24,0.02,2.55,0.00,14.98,19.51,23.36,15.19,49.05,1026.92,2065.38,2546.71,2567.20,2892.37,600.31,619.22,25.61,0000 0000 0000 0000 000000
2016-04-08 02:57:25,0.06,2.55,0.00,15.08,19.56,23.48,15.10,48.88,1027.01,2065.05,2545.67,2566.31,2891.31,599.66,618.37,25.66,0000 0000 0000 0000 000000
2016-04-08 03:02:26,0.07,2.55,0.00,15.09,19.60,23.53,15.14,49.19,1027.15,2065.00,2544.72,2565.63,2890.28,599.91,618.65,25.71,0000 0000 0000 0000 000000
2016-04-08 03:07:28,0.06,2.56,0.00,15.12,19.65,23.61,15.16,49.14,1027.21,2065.00,2543.65,2564.84,2889.33,600.01,618.54,25.76,0000 0000 0000 0000 000000
2016-04-08 03:12:29,0.07,2.56,0.00,15.16,19.70,23.61,15.15,49.09,1027.18,2064.96,2542.30,2564.01,2888.30,600.44,619.03,25.81,0000 0000 0000 0000 000000
2016-04-08 03:17:30,0.03,2.56,0.00,15.20,19.74,23.62,15.19,49.13,1027.20,2064.70,2541.41,2563.17,2887.37,600.17,618.67,25.86,0000 0000 0000 0000 000000
2016-04-08 03:22:32,0.03,2.57,0.00,15.29,19.79,23.60,15.06,48.91,1027.27,2064.09,2540.22,2562.37,2886.34,599.90,618.24,25.91,0000 0000 0000 0000 000000
2016-04-08 03:27:33,0.08,2.57,0.00,15.36,19.83,23.66,15.22,48.99,1027.35,2064.01,2538.89,2561.46,2885.33,600.11,618.39,25.96,0000 0000 0000 0000 000000
2016-04-08 03:32:35,0.08,2.57,0.00,15.40,19.88,23.73,15.18,49.06,1027.36,2064.00,2537.54,2560.62,2884.26,600.02,618.22,26.01,0000 0000 0000 0000 000000
2016-04-08 03:37:36,0.06,2.58,0.00,15.44,19.92,23.81,15.21,49.02,1027.36,2063.99,2536.42,2559.81,2883.25,600.30,618.29,26.06,0000 0000 0000 0000 000000
2016-04-08 03:42:37,0.05,2.58,0.00,15.47,19.97,23.83,15.08,49.09,1027.36,2063.91,2535.32,2559.03,2882.25,600.09,618.09,26.11,0000 0000 0000 0000 000000
2016-04-08 03:47:38,0.01,2.58,0.00,15.53,20.01,23.92,15.13,49.03,1027.36,2063.35,2534.01,2558.23,2881.15,599.84,617.75,26.16,0000 0000 0000 0000 000000
2016-04-08 03:52:40,0.07,2.58,0.00,15.60,20.07,23.95,15.10,49.08,1027.36,2063.04,2532.76,2557.34,2880.05,599.85,617.70,26.21,0000 0000 0000 0000 000000
2016-04-08 03:57:41,0.08,2.59,0.00,15.69,20.12,24.03,15.15,49.02,1027.36,2063.00,2531.54,2556.39,2879.06,600.18,617.77,26.26,0000 0000 0000 0000 000000
2016-04-08 04:02:42,0.06,2.59,0.00,15.72,20.17,24.10,15.18,49.02,1027.36,2062.99,2530.38,2555.68,2878.15,599.95,617.45,26.31,0000 0000 0000 0000 000000
2016-04-08 04:07:44,0.08,2.60,0.00,15.75,20.21,24.13,15.10,49.01,1027.36,2062.98,2529.03,2554.76,2877.09,600.14,617.60,26.36,0000 0000 0000 0000 000000
2016-04-08 04:12:45,0.06,2.60,0.00,15.79,20.26,24.18,15.16,48.99,1027.36,2062.87,2527.68,2553.82,2876.00,600.01,617.39,26.41,0000 0000 0000 0000 000000
2016-04-08 04:17:47,0.03,2.60,0.00,15.82,20.31,24.23,15.06,48.92,1027.36,2062.27,2526.15,2552.74,2874.78,599.98,617.20,26.46,0000 0000 0000 0000 000000
2016-04-08 04:22:48,0.07,2.60,0.00,15.85,20.35,24.25,15.17,48.99,1027.36,2062.02,2524.73,2551.86,2873.62,599.97,617.23,26.51,0000 0000 0000 0000 000000
2016-04-08 04:27:49,0.08,2.61,0.00,15.87,20.39,24.31,15.18,48.89,1027.36,2062.00,2523.40,2550.90,2872.49,600.60,617.81,26.56,0000 0000 0000 0000 000000
2016-04-08 04:32:50,0.07,2.61,0.00,15.96,20.43,24.40,15.06,48.95,1027.36,2062.00,2522.11,2550.02,2871.44,599.68,616.67,26.61,0000 0000 0000 0000 000000
2016-04-08 04:37:52,0.07,2.62,0.00,15.99,20.46,24.45,15.11,48.88,1027.36,2061.97,2521.19,2549.19,2870.44,599.94,616.84,26.66,0000 0000 0000 0000 000000
2016-04-08 04:42:53,0.02,2.62,0.00,16.01,20.50,24.44,15.06,48.86,1027.36,2061.55,2520.17,2548.39,2869.40,599.73,616.59,26.71,0000 0000 0000 0000 000000
2016-04-08 04:47:54,0.05,2.62,0.00,16.03,20.54,24.49,15.15,48.81,1027.36,2061.09,2518.91,2547.60,2868.39,599.99,616.85,26.76,0000 0000 0000 0000 000000
2016-04-08 04:52:56,0.05,2.62,0.00,16.07,20.58,24.54,15.12,48.74,1027.36,2061.01,2517.80,2546.88,2867.42,599.96,616.72,26.81,0000 0000 0000 0000 000000
2016-04-08 04:57:57,0.08,2.63,0.00,16.05,20.62,24.65,15.06,48.91,1027.36,2061.00,2516.55,2546.04,2866.48,600.07,616.74,26.86,0000 0000 0000 0000 000000
2016-04-08 05:02:59,0.07,2.63,0.00,16.03,20.66,24.72,15.12,48.91,1027.37,2060.99,2515.46,2545.20,2865.52,600.22,617.08,26.91,0000 0000 0000 0000 000000
2016-04-08 05:08:00,0.07,2.63,0.00,16.05,20.70,24.74,15.17,48.99,1027.38,2060.98,2514.28,2544.43,2864.58,600.13,616.92,26.96,0000 0000 0000 0000 000000
2016-04-08 05:13:02,0.05,2.64,0.00,16.11,20.74,24.72,15.12,48.87,1027.37,2060.94,2513.36,2543.80,2863.65,599.89,616.39,27.01,0000 0000 0000 0000 000000
2016-04-08 05:18:03,0.02,2.64,0.00,16.12,20.79,24.75,15.18,48.87,1027.36,2060.58,2512.20,2542.89,2862.63,600.22,616.86,27.06,0000 0000 0000 0000 000000
2016-04-08 05:23:04,0.05,2.64,0.00,16.08,20.83,24.78,15.09,48.86,1027.36,2060.07,2510.88,2541.99,2861.53,599.99,616.62,27.11,0000 0000 0000 0000 000000
2016-04-08 05:28:06,0.08,2.65,0.00,16.08,20.87,24.77,15.02,48.85,1027.36,2060.01,2509.51,2541.09,2860.52,599.59,616.48,27.16,0000 0000 0000 0000 000000
2016-04-08 05:33:07,0.08,2.65,0.00,16.09,20.91,24.79,15.06,48.90,1027.36,2060.00,2508.08,2540.18,2859.48,600.02,616.53,27.21,0000 0000 0000 0000 000000
2016-04-08 05:38:08,0.07,2.65,0.00,16.09,20.94,24.80,15.20,49.00,1027.37,2059.99,2506.95,2539.35,2858.45,600.31,617.04,27.26,0000 0000 0000 0000 000000
2016-04-08 05:43:10,0.09,2.66,0.00,16.11,20.98,24.83,15.14,48.97,1027.36,2059.98,2505.62,2538.38,2857.30,600.05,616.74,27.31,0000 0000 0000 0000 000000
2016-04-08 05:48:11,0.06,2.66,0.00,16.14,21.02,24.83,15.18,49.04,1027.36,2059.85,2504.40,2537.57,2856.32,600.20,616.91,27.36,0000 0000 0000 0000 000000
2016-04-08 05:53:13,0.02,2.66,0.00,16.15,21.05,24.91,15.16,49.08,1027.36,2059.33,2503.05,2536.72,2855.28,600.29,616.99,27.41,0000 0000 0000 0000 000000
2016-04-08 05:58:14,0.04,2.67,0.00,16.14,21.09,24.89,15.16,49.06,1027.36,2059.09,2501.99,2535.96,2854.30,600.00,616.65,27.46,0000 0000 0000 0000 000000
2016-04-08 06:03:15,0.08,2.67,0.00,16.14,21.13,24.91,15.16,49.16,1027.38,2059.01,2500.93,2535.10,2853.23,599.98,616.57,27.51,0000 0000 0000 0000 000000
2016-04-08 06:08:17,0.08,2.67,0.00,16.14,21.17,24.92,15.07,48.98,1027.42,2059.00,2499.87,2534.32,2852.28,599.85,616.49,27.56,0000 0000 0000 0000 000000
2016-04-08 06:13:18,0.07,2.68,0.00,16.18,21.20,24.99,15.14,49.06,1027.49,2058.99,2498.75,2533.58,2851.31,599.73,616.29,27.61,0000 0000 0000 0000 000000
2016-04-08 06:18:19,0.07,2.68,0.00,16.19,21.23,25.02,15.08,48.84,1027.58,2058.96,2497.49,2532.72,2850.33,599.66,616.29,27.66,0000 0000 0000 0000 000000
2016-04-08 06:23:21,0.03,2.68,0.00,16.23,21.27,25.04,15.22,49.10,1027.61,2058.71,2496.23,2531.86,2849.27,600.23,616.81,27.71,0000 0000 0000 0000 000000
2016-04-08 06:28:22,0.05,2.69,0.00,16.25,21.29,25.07,15.11,49.09,1027.51,2058.32,2494.95,2530.98,2848.23,600.05,616.41,27.76,0000 0000 0000 0000 000000
2016-04-08 06:33:23,0.06,2.69,0.00,16.26,21.32,25.07,15.10,48.97,1027.52,2058.10,2493.75,2530.09,2847.20,599.84,616.38,27.81,0000 0000 0000 0000 000000
2016-04-08 06:38:24,0.08,2.69,0.00,16.27,21.34,25.13,15.12,48.95,1027.61,2058.03,2492.51,2529.26,2846.18,600.12,616.57,27.86,0000 0000 0000 0000 000000
2016-04-08 06:43:26,0.07,2.70,0.00,16.27,21.36,25.11,15.14,48.82,1027.72,2058.00,2491.41,2528.49,2845.25,600.06,616.63,27.91,0000 0000 0000 0000 000000
2016-04-08 06:48:27,0.05,2.70,0.00,16.27,21.38,25.17,15.13,48.82,1027.83,2058.00,2490.33,2527.89,2844.24,599.89,616.43,27.96,0000 0000 0000 0000 000000
2016-04-08 06:53:29,0.07,2.71,0.00,16.29,21.41,25.22,15.20,49.04,1027.85,2058.00,2489.18,2527.03,2843.29,600.37,616.97,28.01,0000 0000 0000 0000 000000
2016-04-08 06:58:30,0.09,2.71,0.00,16.32,21.43,25.20,15.10,48.98,1027.85,2057.98,2487.90,2526.12,2842.31,599.85,616.35,28.06,0000 0000 0000 0000 000000
2016-04-08 07:03:31,0.08,2.71,0.00,16.37,21.44,25.19,15.20,49.24,1027.84,2057.96,2486.66,2525.28,2841.32,600.24,616.66,28.11,0000 0000 0000 0000 000000
2016-04-08 07:08:32,0.07,2.72,0.00,16.38,21.47,25.26,15.10,48.81,1027.85,2057.94,2485.46,2524.54,2840.34,600.06,616.49,28.16,0000 0000 0000 0000 000000
2016-04-08 07:13:34,0.03,2.72,0.00,16.39,21.48,25.25,15.14,48.75,1027.85,2057.72,2484.24,2523.82,2839.38,600.30,616.68,28.22,0000 0000 0000 0000 000000
2016-04-08 07:18:35,0.04,2.72,0.00,16.37,21.50,25.28,15.07,49.00,1027.85,2057.35,2483.03,2522.92,2838.35,599.75,616.35,28.27,0000 0000 0000 0000 000000
2016-04-08 07:23:36,0.06,2.72,0.00,16.37,21.52,25.31,15.17,49.00,1027.85,2057.10,2481.75,2522.05,2837.34,600.51,616.95,28.32,0000 0000 0000 0000 000000
2016-04-08 07:28:38,0.07,2.73,0.00,16.37,21.53,25.32,15.18,48.91,1027.86,2057.04,2480.57,2521.24,2836.31,600.10,616.49,28.37,0000 0000 0000 0000 000000
2016-04-08 07:33:39,0.08,2.73,0.00,16.44,21.54,25.35,15.13,48.91,1027.87,2057.02,2479.29,2520.45,2835.26,600.04,616.37,28.42,0000 0000 0000 0000 000000
2016-04-08 07:38:40,0.09,2.74,0.00,16.46,21.55,25.38,15.16,48.89,1027.90,2057.00,2477.84,2519.55,2834.17,599.97,616.02,28.47,0000 0000 0000 0000 000000
2016-04-08 07:43:41,0.10,2.74,0.00,16.48,21.57,25.39,15.09,48.94,1028.02,2057.00,2476.34,2518.53,2832.89,600.08,616.48,28.52,0000 0000 0000 0000 000000
2016-04-08 07:48:43,0.14,2.75,0.00,16.47,21.57,25.35,15.13,48.91,1028.20,2057.00,2474.20,2517.10,2831.32,600.21,616.60,28.57,0000 0000 0000 0000 000000
2016-04-08 07:53:44,0.18,2.76,0.00,16.47,21.59,25.35,15.12,48.86,1028.29,2057.00,2471.30,2515.33,2829.26,599.93,616.41,28.62,0000 0000 0000 0000 000000
2016-04-08 07:58:45,0.18,2.77,0.00,16.48,21.59,25.43,15.11,48.82,1028.31,2056.99,2468.44,2513.50,2827.15,600.10,616.56,28.67,0000 0000 0000 0000 000000
2016-04-08 08:03:46,0.18,2.78,0.00,16.50,21.59,25.37,15.17,48.75,1028.30,2056.99,2465.71,2511.66,2825.04,600.02,616.48,28.72,0000 0000 0000 0000 000000
2016-04-08 08:08:48,0.16,2.78,0.00,16.59,21.59,25.41,15.13,48.63,1028.32,2056.98,2463.24,2509.95,2822.94,600.08,616.20,28.77,0000 0000 0000 0000 000000
2016-04-08 08:13:49,0.11,2.79,0.00,16.57,21.59,25.45,15.11,48.58,1028.33,2056.97,2461.26,2508.68,2821.50,600.03,616.31,28.82,0000 0000 0000 0000 000000
2016-04-08 08:18:50,0.11,2.80,0.00,16.58,21.59,25.48,15.13,48.54,1028.33,2056.98,2459.48,2507.55,2820.18,600.05,616.36,28.87,0000 0000 0000 0000 000000
2016-04-08 08:23:52,0.12,2.80,0.00,16.60,21.59,25.53,15.16,48.57,1028.33,2056.98,2457.69,2506.46,2818.78,600.00,616.01,28.92,0000 0000 0000 0000 000000
2016-04-08 08:28:53,0.12,2.81,0.00,16.61,21.59,25.62,15.12,48.60,1028.33,2056.98,2455.71,2505.20,2817.43,599.83,616.01,28.97,0000 0000 0000 0000 000000
2016-04-08 08:33:54,0.11,2.81,0.00,16.66,21.59,25.71,15.03,48.47,1028.33,2056.97,2453.95,2503.99,2816.02,599.98,616.01,29.02,0000 0000 0000 0000 000000
2016-04-08 08:38:56,0.21,2.82,0.00,16.71,21.59,25.75,15.17,48.57,1028.33,2056.98,2451.15,2502.14,2813.93,600.28,616.33,29.07,0000 0000 0000 0000 000000
2016-04-08 08:43:57,0.20,2.83,0.00,16.73,21.59,25.77,15.01,48.45,1028.33,2056.97,2448.05,2499.99,2811.56,599.49,615.47,29.12,0000 0000 0000 0000 000000
2016-04-08 08:48:58,0.15,2.84,0.00,16.70,21.59,25.77,15.16,48.50,1028.34,2056.94,2445.52,2498.28,2809.53,600.09,616.07,29.17,0000 0000 0000 0000 000000
2016-04-08 08:53:59,0.17,2.85,0.00,16.69,21.60,25.85,15.18,48.50,1028.35,2056.95,2443.28,2496.67,2807.64,600.29,616.32,29.22,0000 0000 0000 0000 000000
2016-04-08 08:59:00,0.15,2.86,0.00,16.68,21.62,25.84,15.07,48.38,1028.35,2056.90,2440.80,2495.04,2805.61,599.91,616.02,29.27,0000 0000 0000 0000 000000
2016-04-08 09:04:01,0.21,2.87,0.00,16.66,21.62,25.82,15.10,48.34,1028.35,2056.89,2437.99,2493.18,2803.40,600.11,616.01,29.32,0000 0000 0000 0000 000000
2016-04-08 09:09:02,0.29,2.88,0.00,16.62,21.62,25.72,15.22,48.41,1028.40,2056.86,2433.69,2490.21,2800.17,600.33,616.58,29.37,0000 0000 0000 0000 000000
2016-04-08 09:14:04,0.34,2.90,0.00,16.63,21.63,25.71,15.08,48.33,1028.42,2056.87,2428.97,2486.89,2796.42,599.53,615.72,29.42,0000 0000 0000 0000 000000
2016-04-08 09:19:05,0.31,2.91,0.00,16.64,21.64,25.68,15.14,48.27,1028.49,2056.81,2424.21,2483.51,2792.63,600.06,616.36,29.47,0000 0000 0000 0000 000000
2016-04-08 09:24:06,0.39,2.93,0.00,16.60,21.64,25.64,15.12,48.37,1028.64,2056.53,2418.73,2479.53,2787.95,600.06,616.46,29.52,0000 0000 0000 0000 000000
2016-04-08 09:29:07,0.28,2.95,0.00,16.57,21.64,25.62,15.15,48.26,1028.74,2056.27,2413.93,2476.07,2784.03,600.07,616.68,29.57,0000 0000 0000 0000 000000
2016-04-08 09:34:08,0.21,2.96,0.00,16.55,21.64,25.64,15.20,48.49,1028.77,2056.32,2410.61,2473.85,2781.59,599.98,616.45,29.62,0000 0000 0000 0000 000000
2016-04-08 09:39:09,0.15,2.97,0.00,16.51,21.64,25.74,15.16,48.43,1028.77,2056.45,2408.35,2472.41,2779.90,600.43,617.11,29.67,0000 0000 0000 0000 000000
2016-04-08 09:44:10,0.14,2.98,0.00,16.51,21.63,25.69,15.17,48.58,1028.79,2056.63,2406.35,2471.12,2778.43,599.87,616.56,29.72,0000 0000 0000 0000 000000
2016-04-08 09:49:11,0.14,2.98,0.00,16.52,21.63,25.65,15.09,48.48,1028.79,2056.62,2404.20,2469.71,2776.80,599.92,616.34,29.77,0000 0000 0000 0000 000000
2016-04-08 09:54:13,0.19,2.99,0.00,16.49,21.62,25.59,15.11,48.47,1028.80,2056.74,2401.70,2468.09,2774.94,599.76,616.54,29.82,0000 0000 0000 0000 000000
2016-04-08 09:59:14,0.19,3.00,0.00,16.47,21.62,25.64,15.08,48.56,1028.81,2056.91,2399.11,2466.42,2772.99,599.53,616.31,29.87,0000 0000 0000 0000 000000
2016-04-08 10:04:15,0.18,3.01,0.00,16.44,21.60,25.61,15.20,48.58,1028.82,2056.92,2396.45,2464.67,2770.95,600.05,616.82,29.92,0000 0000 0000 0000 000000
2016-04-08 10:09:16,0.15,3.02,0.00,16.40,21.59,25.58,15.25,48.62,1028.82,2056.96,2394.00,2463.04,2769.14,600.13,617.03,29.97,0000 0000 0000 0000 000000
2016-04-08 10:14:17,0.15,3.03,0.00,16.43,21.59,25.58,15.18,48.65,1028.82,2056.96,2391.91,2461.63,2767.55,599.99,616.90,30.02,0000 0000 0000 0000 000000
2016-04-08 10:19:18,0.34,3.04,0.00,16.43,21.58,25.58,15.20,48.63,1028.82,2056.90,2387.82,2458.59,2764.08,600.14,617.03,30.07,0000 0000 0000 0000 000000
2016-04-08 10:24:20,0.80,3.07,0.00,16.37,21.57,25.52,15.15,48.38,1028.82,2056.80,2378.84,2451.54,2755.99,600.34,617.36,30.12,0000 0000 0000 0000 000000
2016-04-08 10:29:21,0.97,3.11,0.00,16.33,21.55,25.43,15.14,48.63,1028.82,2056.60,2365.86,2441.29,2744.79,599.88,616.98,30.17,0000 0000 0000 0000 000000
2016-04-08 10:34:22,0.83,3.16,0.00,16.28,21.53,25.52,15.18,48.58,1028.82,2056.63,2354.66,2432.70,2735.18,599.92,617.01,30.22,0000 0000 0000 0000 000000
2016-04-08 10:39:23,0.88,3.21,0.00,16.27,21.51,25.52,15.10,48.52,1028.82,2056.81,2343.14,2424.19,2725.99,599.58,616.85,30.27,0000 0000 0000 0000 000000
2016-04-08 10:44:25,0.79,3.25,0.00,16.28,21.48,25.45,15.16,48.42,1028.82,2056.96,2332.38,2416.25,2717.25,599.97,617.21,30.32,0000 0000 0000 0000 000000
2016-04-08 10:49:26,0.70,3.28,0.00,16.21,21.44,25.44,15.14,48.50,1028.82,2056.97,2323.02,2409.16,2709.42,599.97,617.25,30.37,0000 0000 0000 0000 000000
2016-04-08 10:54:27,0.69,3.32,0.00,16.15,21.41,25.44,15.24,48.42,1028.82,2056.98,2314.09,2402.48,2701.93,600.40,617.96,30.42,0000 0000 0000 0000 000000
2016-04-08 10:59:28,0.70,3.35,0.60,16.08,21.36,25.42,15.19,48.50,1028.82,2056.99,2304.62,2395.57,2694.34,600.00,617.63,30.47,0000 0000 0000 0000 000000
2016-04-08 11:04:30,0.81,3.39,1.00,16.03,21.32,25.28,15.06,48.54,1028.82,2057.00,2294.59,2388.01,2686.10,599.55,617.26,30.52,0000 0000 0000 0000 000000
2016-04-08 11:09:31,0.82,3.44,1.00,16.05,21.28,25.27,15.17,48.68,1028.82,2057.02,2284.10,2380.16,2677.46,599.98,617.73,30.57,0000 0000 0000 0000 000000
2016-04-08 11:14:32,0.74,3.47,1.00,15.98,21.23,25.28,15.16,48.57,1028.82,2057.11,2274.40,2372.86,2669.39,600.00,617.75,30.62,0000 0000 0000 0000 000000
2016-04-08 11:19:33,0.59,3.51,1.00,15.90,21.19,25.24,15.24,48.67,1028.82,2057.62,2266.90,2367.56,2663.41,599.82,617.80,30.67,0000 0000 0000 0000 000000
2016-04-08 11:24:34,0.37,3.53,1.00,15.85,21.15,25.14,15.22,48.50,1028.82,2057.97,2262.04,2363.96,2659.14,599.96,618.07,30.72,0000 0000 0000 0000 000000
2016-04-08 11:29:36,1.18,3.56,1.00,15.81,21.10,25.09,15.19,48.43,1028.82,2057.97,2251.17,2355.37,2649.23,600.24,618.39,30.77,0000 0000 0000 0000 000000
2016-04-08 11:34:37,2.56,3.66,1.00,15.80,21.06,25.03,15.23,48.69,1028.82,2057.98,2223.55,2333.90,2625.46,600.44,618.62,30.82,0000 0000 0000 0000 000000
2016-04-08 11:39:39,1.59,3.78,1.00,15.73,21.02,25.02,15.14,48.52,1028.82,2057.99,2199.02,2315.19,2605.02,600.06,618.46,30.87,0000 0000 0000 0000 000000
2016-04-08 11:44:40,0.57,3.82,1.00,15.67,20.97,24.94,15.22,48.52,1028.82,2058.00,2190.89,2308.91,2597.80,600.13,618.65,30.92,0000 0000 0000 0000 000000
2016-04-08 11:49:41,1.74,3.88,1.00,15.61,20.92,24.95,15.21,48.62,1028.82,2058.04,2175.86,2297.25,2584.41,599.86,618.50,30.97,0000 0000 0000 0000 000000
2016-04-08 11:54:42,2.94,4.01,1.00,15.62,20.88,24.91,15.25,48.54,1028.82,2058.10,2143.13,2271.80,2555.66,600.25,618.76,31.02,0000 0000 0000 0000 000000
2016-04-08 11:59:44,3.23,4.17,1.63,15.57,20.83,24.85,15.27,48.70,1028.78,2058.29,2107.19,2243.62,2523.88,599.80,618.53,31.07,0000 0000 0000 0000 000000
2016-04-08 12:04:46,2.27,4.30,2.00,15.50,20.78,24.81,15.17,48.59,1028.64,2058.75,2080.45,2222.94,2500.51,599.84,618.58,31.12,0000 0000 0000 0000 000000
2016-04-08 12:09:47,1.36,4.39,2.00,15.43,20.73,24.83,15.24,48.58,1028.72,2058.97,2063.98,2209.95,2485.81,600.05,619.07,31.17,0000 0000 0000 0000 000000
2016-04-08 12:14:49,1.13,4.45,2.00,15.39,20.68,24.72,15.26,48.67,1028.62,2058.99,2050.92,2199.82,2474.35,600.23,619.21,31.22,0000 0000 0000 0000 000000
2016-04-08 12:19:50,1.25,4.51,2.00,15.39,20.64,24.66,15.16,48.77,1028.46,2058.99,2038.11,2189.78,2463.04,599.64,618.53,31.27,0000 0000 0000 0000 000000
2016-04-08 12:24:51,0.93,4.56,2.00,15.30,20.59,24.56,15.19,48.74,1028.40,2059.00,2027.41,2181.65,2453.82,599.83,618.96,31.32,0000 0000 0000 0000 000000
2016-04-08 12:29:52,1.02,4.61,2.00,15.23,20.54,24.55,15.29,48.87,1028.38,2059.04,2017.58,2174.06,2445.03,600.48,619.36,31.37,0000 0000 0000 0000 000000
2016-04-08 12:34:54,1.31,4.68,2.00,15.19,20.49,24.55,15.20,48.92,1028.37,2059.20,2003.78,2163.41,2432.89,600.32,619.60,31.42,0000 0000 0000 0000 000000
2016-04-08 12:39:55,1.32,4.74,2.00,15.17,20.44,24.49,15.18,48.96,1028.36,2059.82,1991.13,2153.67,2421.92,599.99,619.24,31.47,0000 0000 0000 0000 000000
2016-04-08 12:44:57,1.20,4.80,2.00,15.09,20.39,24.45,15.23,48.84,1028.39,2059.98,1978.84,2144.01,2410.81,600.22,619.68,31.52,0000 0000 0000 0000 000000
2016-04-08 12:49:58,1.03,4.86,2.00,15.02,20.34,24.34,15.24,49.02,1028.40,2059.99,1967.74,2135.55,2401.21,599.93,619.58,31.57,0000 0000 0000 0000 000000
2016-04-08 12:54:59,0.57,4.89,2.00,15.00,20.29,24.35,15.22,49.07,1028.40,2060.00,1960.86,2130.39,2395.39,599.92,619.72,31.62,0000 0000 0000 0000 000000